Weather in Anshun

China     26°14′41″N   105°55′32″E
temp.,
°C
wind,
m/s
gust,
m/s
humid.,
%
clouds,
%
prec.,
mm/h
press.,
hPa
HPBL,
m
9 may, sun
sun923:00+18s118418 0.0 101111
02:00+17s11895 0.0 101011
05:00+16sse11905 0.0 100911
08:00+18sse2384100 0.0 1010240
11:00+23ssw4567100 0.0 1008935
14:00+26ssw465726 0.0 10051604
17:00+22ese1473100 5.9 1003199
20:00+20sse498514 12.8 1003238
10 may, mon
mon1023:00+19sse413882 4.0 1004468
02:00+19s515870 6.2 1003446
05:00+18ssw411934 0.1 1002330
08:00+20ssw612860 0.1 1003600
11:00+23ssw8106880 0.1 10031506
14:00+26ssw9135483 0.3 10002229
17:00+26s914632 0.0 9981403
20:00+22sse8167998 0.5 999631
11 may, tue
tue1123:00+21s614797 0.7 1002422
02:00+20ssw513771 0.7 1001312
05:00+18wnw11880 0.0 100311
08:00+20ne44816 0.3 1005263
11:00+24ne226234 0.9 10051149
14:00+23nne546561 2.1 1004783
17:00+24ne446358 2.5 1003716
20:00+20ne478445 3.3 1006265
12 may, wed
wed1223:00+18nne378636 0.4 1008262
02:00+17nne34910 0.7 1007124
05:00+16ne23945 0.0 100786
08:00+18ne12825 0.0 1008251
11:00+22se236762 0.0 10061003
14:00+25ssw565940 0.8 10031482
17:00+25s68632 1.1 10001188
20:00+21sse498592 9.4 1002228
13 may, thu
thu1323:00+20s314884 5.5 1003409
02:00+21s513834 8.1 1002337
05:00+19s279485 0.0 1002166
08:00+21s4108413 0.1 1004437
11:00+25ssw8116010 0.0 10031446
14:00+26s8135963 2.1 10011738
17:00+23s713740 1.8 999681
20:00+22sse7147846 3.4 1000493